[[{"header":{"parameterUnit":"m.s-1","parameterCategory":1,"la1":30.2992,"la2":30.254,"lo1":-89.0895,"lo2":-89.0443,"dy":0.0025,"dx":0.0025,"nx":19,"ny":19,"refTime":"2026-05-08T03:00:00:Z","depth":0,"parameterNumber":2,"parameterNumberName":"U-component_of_WINDS"},"data":[0,0,0,0.0738,0.0737,0.0727,0.0727,0.0715,0.0715,0,0,0,0,0,0,0,0,0,0,0,0.0742,0.0742,0.0738,0.0737,0.0727,0.0727,0.0715,0.0715,0,0,0,0,0,0,0,0,0,0,0,0.0742,0.0742,0.0742,0.0737,0.0727,0.0727,0.0715,0.0723,0,0,0,0,0,0,0,0,0,0,0.0733,0.0737,0.0742,0.0742,0.0737,0.0727,0.0727,0.0723,0.0722,0.0721,0,0.072,0,0.0717,0.0715,0.0715,0,0,0,0.0737,0.0738,0.0734,0.0742,0.0737,0.0727,0.0732,0.0723,0.0722,0.072,0.0719,0.0719,0.0717,0.0715,0.0714,0.0705,0.0705,0,0,0.0738,0.0741,0.0735,0.0734,0.0735,0.0732,0.0731,0.0722,0.0722,0.0719,0.0719,0.0717,0.0714,0.0714,0.0705,0.0705,0,0,0,0.0739,0.0741,0.0737,0.0734,0.0732,0.0732,0.0731,0.0723,0.0721,0.0718,0.0717,0.0714,0.0714,0.0705,0.0705,0.0707,0,0,0,0.074,0.0742,0.0738,0.074,0.0732,0.0727,0.0732,0.0722,0.072,0.0717,0.0714,0.0714,0.0705,0.0705,0.0707,0.0708,0,0,0,0.0742,0.0743,0.0741,0.074,0.0735,0.0727,0.0725,0.0721,0.0719,0.0715,0.0714,0.0705,0.0705,0.0707,0.0708,0.0705,0,0,0,0.0746,0.0744,0.0741,0.0739,0.0735,0.0728,0.0725,0.072,0.0716,0.0714,0.0705,0.0705,0.0707,0.0708,0.0705,0.0704,0.0704,0,0,0.0746,0.0745,0.0742,0.0739,0.0733,0.0729,0.0723,0.0717,0.0715,0.0709,0.0708,0.0707,0.0708,0.0705,0.0701,0.0701,0,0,0,0.0744,0.0742,0.074,0.0735,0.073,0.0724,0.0719,0.0716,0.071,0.0712,0.0705,0.0706,0.0704,0.0703,0.0703,0.0701,0.0705,0.0705,0.0705,0.0749,0.0744,0.074,0.0732,0.0728,0.0721,0.0716,0.0712,0.0709,0.0707,0.0706,0.0704,0.0703,0.0703,0.0701,0.0705,0.0705,0.0705,0.0705,0.0748,0.0745,0.0739,0.0733,0.0727,0.0722,0.0713,0.0711,0.0705,0.0705,0.0703,0.0704,0.0703,0.0701,0.0705,0.0705,0.0705,0.0705,0.0705,0.0752,0.0749,0.0744,0.0736,0.0729,0.0722,0.0716,0.0711,0.0707,0.0705,0.0702,0.0702,0.0701,0.0704,0.0704,0.0704,0.0704,0.0704,0.0704,0.0757,0.0752,0.0747,0.0738,0.0733,0.0726,0.0717,0.0712,0.0706,0.0703,0.0703,0.0699,0.0703,0.0704,0.0703,0.0703,0.0703,0.0703,0.0704,0.0759,0.0757,0.0749,0.0744,0.0732,0.0726,0.0718,0.0709,0.0704,0.0701,0.0697,0.07,0.0699,0.0699,0.07,0.0698,0.0698,0.0698,0.0698,0.0762,0.0759,0.0749,0.0741,0.0733,0.0724,0.0715,0.0707,0.0698,0.0694,0.0694,0.0694,0.0695,0.0693,0.0693,0.0694,0.0691,0.0691,0.0691,0.0762,0.0758,0.0752,0.0742,0.0731,0.0723,0.0713,0.0704,0.0694,0.069,0.0691,0.0692,0.0692,0.0693,0.0691,0.0691,0.0693,0,0]},{"header":{"parameterUnit":"m.s-1","parameterCategory":1,"la1":30.2992,"la2":30.254,"lo1":-89.0895,"lo2":-89.0443,"dy":0.0025,"dx":0.0025,"nx":19,"ny":19,"refTime":"2026-05-08T03:00:00:Z","depth":0,"parameterNumber":3,"parameterNumberName":"V-component_of_WINDS"},"data":[0,0,0,2.4835,2.4835,2.4855,2.4855,2.4884,2.4884,0,0,0,0,0,0,0,0,0,0,0,2.4833,2.4833,2.4835,2.4835,2.4855,2.4855,2.4884,2.4884,0,0,0,0,0,0,0,0,0,0,0,2.4833,2.4833,2.4833,2.4835,2.4855,2.4855,2.4884,2.4867,0,0,0,0,0,0,0,0,0,0,2.4848,2.485,2.4833,2.4833,2.4835,2.4855,2.4855,2.4867,2.4868,2.4877,0,2.4888,0,2.4887,2.4887,2.4887,0,0,0,2.4832,2.4849,2.485,2.4834,2.4836,2.4855,2.4845,2.4868,2.487,2.488,2.4888,2.4889,2.4887,2.4887,2.4887,2.4951,2.4952,0,0,2.4831,2.4838,2.4849,2.4852,2.485,2.4844,2.4846,2.4869,2.4878,2.4888,2.4889,2.4887,2.4887,2.4887,2.4951,2.4951,0,0,0,2.483,2.4838,2.4839,2.4851,2.4854,2.4845,2.4846,2.4877,2.4876,2.489,2.4888,2.4887,2.4888,2.495,2.4951,2.498,0,0,0,2.4829,2.4837,2.4838,2.4843,2.4854,2.4866,2.4854,2.4875,2.4877,2.4888,2.4887,2.4888,2.495,2.4951,2.4979,2.4993,0,0,0,2.483,2.4837,2.4841,2.4843,2.4852,2.4865,2.4866,2.4875,2.4876,2.4887,2.4888,2.495,2.4951,2.4977,2.4991,2.5012,0,0,0,2.4833,2.4868,2.4842,2.4879,2.4852,2.4883,2.4866,2.4889,2.4902,2.4888,2.495,2.4951,2.4976,2.4989,2.5011,2.5032,2.5042,0,0,2.4881,2.4874,2.4895,2.4872,2.491,2.488,2.4921,2.4926,2.492,2.4941,2.4942,2.4979,2.499,2.5012,2.5093,2.5101,0,0,0,2.4912,2.4928,2.4936,2.4949,2.4953,2.4957,2.4955,2.4956,2.4973,2.4933,2.4992,2.4999,2.5011,2.5021,2.5028,2.5038,2.4956,2.4956,2.4956,2.4991,2.4981,2.5015,2.5007,2.5019,2.5015,2.5024,2.5025,2.5012,2.5026,2.5032,2.5083,2.5095,2.51,2.511,2.5042,2.5043,2.5043,2.5043,2.5059,2.5079,2.506,2.5086,2.5075,2.5096,2.5093,2.5082,2.51,2.5077,2.5088,2.5064,2.5108,2.5117,2.5045,2.5044,2.5044,2.5044,2.5044,2.511,2.5118,2.5119,2.5135,2.5148,2.5138,2.5156,2.5144,2.5134,2.5144,2.515,2.5149,2.5148,2.5147,2.5148,2.5148,2.5148,2.5148,2.5148,2.5163,2.5163,2.5179,2.5185,2.5191,2.5197,2.5192,2.5197,2.52,2.519,2.519,2.5176,2.5114,2.51,2.5151,2.515,2.515,2.515,2.515,2.5238,2.5219,2.5244,2.525,2.5255,2.5268,2.5253,2.5264,2.5267,2.5275,2.5258,2.5214,2.5206,2.5201,2.5189,2.526,2.526,2.526,2.526,2.5281,2.5275,2.5299,2.5308,2.5316,2.5304,2.5333,2.5328,2.5321,2.5321,2.5309,2.5291,2.5286,2.5281,2.5274,2.5263,2.5351,2.5351,2.5351,2.5326,2.5321,2.5348,2.534,2.5342,2.5344,2.537,2.5381,2.5369,2.5355,2.5321,2.5318,2.5289,2.528,2.5267,2.5256,2.5235,0,0]}]]